SCP
1 1 1 1 1 1 1 1 1 1 1 1 1 1 1 1 1 1 1 1 1 1 1 0 0 0 0 0 0 0 0 0 0 0 0 0 0 0 0 0 0 0 1
1 1 1 1 1 1 1 1 2 2 1 1 1 1 1 1 1 1 1 1 1 1 1 0 0 0 0 0 0 0 0 0 0 0 0 0 0 0 0 0 0 0 0
1 1 1 1 1 1 1 1 1 2 1 1 1 1 1 1 1 1 1 0 0 1 1 1 0 0 0 0 0 0 0 0 0 0 0 0 0 0 0 0 0 0 0
1 1 1 1 1 1 1 1 1 1 1 1 1 1 1 1 1 1 1 1 0 1 1 1 1 0 0 0 0 0 0 0 0 0 0 0 0 0 0 0 0 0 0
1 1 1 1 1 1 1 1 1 1 1 1 1 1 1 1 1 1 1 1 1 1 1 1 1 1 1 1 0 0 0 0 0 0 0 0 0 0 0 0 1 1 0
1 1 1 2 2 2 1 1 1 1 2 2 2 1 1 1 1 1 1 1 1 1 1 1 1 1 1 1 0 0 0 0 0 0 0 0 0 0 0 0 1 1 1
1 1 2 2 2 2 2 2 2 2 2 2 2 2 1 1 1 1 1 1 1 1 1 1 1 1 1 1 0 0 0 0 0 0 0 0 0 0 0 0 0 1 0
1 1 1 1 1 1 1 2 2 2 2 2 2 2 1 1 1 1 1 1 1 2 1 1 1 1 1 1 1 0 0 0 0 0 0 0 0 0 1 1 1 0 0
1 1 1 1 1 1 1 1 1 2 2 2 2 2 2 2 1 1 1 1 2 2 2 1 1 1 1 1 1 0 0 0 0 0 0 0 0 0 1 1 1 0 0
1 1 1 1 1 1 1 1 1 1 1 1 2 2 2 2 1 1 1 1 1 1 1 1 1 1 1 1 1 0 0 0 0 0 0 0 0 1 1 1 1 0 0
1 1 1 1 1 1 1 1 1 1 1 1 1 2 2 2 1 1 1 1 1 1 1 1 1 1 1 1 1 0 0 0 0 0 0 0 0 0 1 1 1 0 0
1 1 1 1 1 1 1 2 2 2 1 1 1 2 2 1 1 1 1 1 1 1 1 1 1 1 1 1 1 0 0 1 1 0 0 0 0 0 0 1 1 1 1
1 1 1 1 1 2 2 2 2 2 2 2 1 2 2 2 2 2 2 2 2 1 1 1 1 1 1 1 1 1 1 1 1 1 1 0 0 0 0 1 1 1 1
1 1 1 1 1 2 2 2 2 2 2 2 2 2 2 2 2 2 2 2 2 2 2 1 1 1 1 1 0 0 1 1 1 1 1 0 0 1 1 0 1 1 1
1 1 0 0 1 1 2 2 2 2 2 2 2 2 2 2 2 2 2 2 2 2 2 1 1 1 1 1 0 0 1 1 1 1 0 0 0 1 1 1 1 1 1
0 0 0 0 0 1 1 1 1 1 1 2 2 2 2 2 2 2 2 2 2 2 2 1 1 1 1 1 1 1 1 1 1 0 0 0 0 1 1 1 1 1 1
0 0 0 0 0 0 0 1 1 1 1 1 1 1 1 2 2 2 2 2 2 2 1 1 1 1 1 1 1 1 1 1 1 0 0 0 0 0 1 1 1 1 1
0 0 0 0 0 0 0 0 0 0 0 0 0 1 1 1 2 2 2 2 2 2 1 1 1 1 1 1 1 1 1 1 1 0 0 0 0 0 0 0 1 1 1
0 0 0 0 0 0 0 0 0 0 0 0 0 0 1 1 1 2 2 2 2 1 1 1 1 1 1 1 1 1 1 1 1 0 0 0 0 0 0 0 0 0 0
0 0 0 0 0 0 0 0 0 0 0 0 0 0 0 1 1 1 2 2 1 1 1 1 1 1 1 1 1 1 1 1 1 0 0 0 0 0 0 0 0 0 0
0 0 0 0 0 0 0 0 0 0 0 0 0 0 0 0 0 1 1 1 1 1 1 1 1 1 1 0 0 1 1 1 0 0 0 0 0 0 0 0 1 1 1
0 0 0 0 0 0 0 0 0 0 0 0 0 0 0 0 0 0 1 1 1 0 0 1 1 1 0 0 0 0 0 0 0 0 0 0 0 0 0 0 1 1 1
0 0 0 0 0 0 0 0 0 0 0 0 0 0 0 0 0 0 0 1 0 0 0 0 0 0 0 0 0 0 0 0 0 0 0 0 0 0 0 0 0 1 1
0 0 0 0 0 0 0 0 0 0 0 0 0 0 0 0 0 0 0 0 0 0 0 0 0 0 0 0 0 0 0 0 0 0 0 0 0 0 0 0 0 1 1
0 0 0 0 0 0 0 0 0 0 0 0 0 0 0 0 0 0 0 0 0 0 0 0 0 0 0 0 0 0 0 0 0 0 0 0 0 0 0 0 0 0 1
0 0 0 0 0 0 0 0 0 0 0 0 0 0 0 0 0 0 0 0 0 0 0 0 0 0 0 0 0 0 0 0 0 0 0 0 0 0 0 0 0 0 1
Wind_Speed
6 9 12 12 10 10 11 11 12 12 12 12 12 12 12 11 10 10 10 10 10 10 10 10 10 10 10 11 11 11 11 11 11 11 10 10 10 10 10 8 6 9 11
6 7 10 10 10 10 11 11 12 12 12 12 12 12 12 12 11 10 10 10 10 10 10 11 10 10 10 11 10 10 10 10 10 9 7 7 9 9 9 9 9 8 10
6 7 7 10 10 10 11 11 12 12 13 13 13 12 12 12 12 11 10 10 10 10 11 11 11 11 10 11 10 10 10 10 9 6 3 5 8 9 9 9 10 10 9
6 6 7 10 10 11 11 12 12 13 13 13 13 12 12 12 12 11 10 11 11 11 11 11 11 11 11 10 10 10 9 9 7 3 3 6 6 9 9 9 9 9 9
6 7 8 11 11 11 12 13 13 13 13 13 13 12 12 12 12 12 11 10 11 11 11 11 11 11 10 10 10 9 9 7 4 3 5 5 5 8 8 8 8 8 8
7 8 8 11 11 11 12 13 13 13 13 13 13 12 12 12 12 13 13 12 11 11 10 10 10 10 10 10 10 10 8 7 2 4 5 5 5 7 7 7 7 7 7
7 8 8 11 12 12 12 12 13 13 13 13 13 13 12 12 13 13 13 12 11 11 11 10 10 10 10 10 10 9 8 6 4 5 4 5 6 6 5 6 6 6 6
7 7 8 11 13 13 14 13 12 13 13 13 13 13 12 12 12 12 13 12 12 11 10 10 10 10 10 10 10 9 8 5 3 4 4 5 7 5 4 4 5 5 5
7 7 8 8 9 12 13 14 13 13 13 13 13 13 12 12 12 12 12 12 12 11 10 10 9 9 9 9 9 9 8 6 3 3 4 4 7 5 4 4 3 4 4
7 7 8 8 8 8 9 12 13 12 12 12 12 12 11 10 10 11 11 12 12 11 10 9 9 9 8 8 9 8 7 4 4 3 3 5 7 6 5 4 3 2 3
7 7 7 8 7 7 7 9 10 10 10 9 9 11 8 6 6 7 10 11 12 12 10 9 8 8 6 6 7 7 4 3 3 3 3 7 7 6 5 4 3 2 2
6 6 6 7 7 7 6 6 5 6 6 6 6 7 5 5 5 6 8 10 11 11 9 9 7 5 4 3 4 3 2 3 3 3 4 7 6 6 5 5 4 3 2
4 5 5 6 6 6 5 5 4 4 4 5 7 7 5 5 4 4 4 5 6 7 5 5 4 3 3 3 2 2 3 2 2 2 4 7 6 5 5 5 4 2 2
3 4 5 5 5 5 5 4 4 4 4 4 5 7 5 4 4 4 4 4 4 4 5 4 3 4 3 3 2 2 3 2 2 2 3 7 7 7 6 5 5 3 1
3 3 4 5 5 5 4 4 4 4 4 5 4 5 6 4 4 4 3 4 5 4 5 5 4 4 3 3 3 3 3 3 3 2 2 5 7 7 6 6 5 4 2
2 3 3 4 4 4 4 4 4 4 4 4 4 6 6 4 4 4 4 4 4 5 4 4 5 4 3 2 3 3 3 3 2 2 2 2 5 6 7 6 5 5 4
2 2 3 3 4 4 4 4 4 4 4 4 4 5 6 5 5 4 4 4 4 5 5 4 5 3 3 2 2 2 2 2 2 3 2 2 2 4 5 6 6 5 4
2 2 3 3 3 4 4 4 3 4 4 4 4 5 6 6 5 4 3 4 4 4 4 4 4 4 3 3 3 2 2 2 2 2 2 2 2 2 3 5 5 5 5
2 2 2 3 3 3 4 3 4 4 4 4 4 5 5 6 5 4 3 4 4 4 4 4 4 4 4 4 3 3 2 2 2 2 2 2 2 3 3 3 4 5 5
2 2 2 2 3 3 2 2 2 4 4 4 4 5 6 5 5 4 3 4 4 3 4 4 4 4 4 4 3 3 2 2 2 2 2 2 2 3 3 3 2 3 4
2 2 2 2 3 2 2 2 2 3 3 4 4 6 6 6 6 4 4 4 4 3 4 5 4 4 4 4 3 2 2 2 2 1 2 2 3 3 3 3 3 3 2
2 1 1 2 2 2 2 2 2 2 2 3 3 4 6 6 6 5 4 4 4 3 4 4 4 4 3 4 3 2 2 1 0 2 2 2 3 3 3 3 3 3 3
2 2 1 1 1 2 2 1 1 1 1 2 4 4 5 6 6 6 5 4 4 4 3 4 4 4 3 3 3 2 2 2 3 2 3 3 3 3 3 4 4 4 4
3 2 1 1 1 1 1 1 2 2 2 3 3 3 4 5 5 5 5 5 4 4 4 4 3 3 4 4 3 2 3 3 3 3 3 3 4 5 5 4 5 5 4
3 2 2 1 0 1 1 1 1 2 2 2 3 4 4 4 4 5 5 5 4 4 4 4 4 4 4 4 4 4 4 4 5 5 5 5 5 4 5 5 5 5 5
3 2 2 1 1 0 1 1 1 2 2 3 4 4 4 3 4 5 5 5 5 4 5 5 5 5 5 5 5 4 5 4 4 5 6 6 6 6 6 5 5 6 5
Wind_Direction
358 348 347 352 8 29 35 38 41 41 41 41 43 45 46 50 53 58 57 55 53 54 57 59 62 64 65 65 64 64 64 61 62 61 63 67 69 70 70 64 65 80 73
343 345 352 358 15 31 37 40 41 41 41 42 42 44 45 45 48 54 55 55 54 54 57 59 60 63 65 65 65 64 63 61 60 56 57 77 72 67 68 58 48 70 73
358 357 2 12 23 34 40 41 42 42 41 41 41 43 44 43 43 48 52 53 54 54 55 58 58 58 61 63 63 63 63 60 58 47 44 79 81 70 68 67 67 73 76
6 5 15 19 28 38 43 43 44 44 42 40 39 40 42 41 42 44 49 50 52 53 54 56 58 58 58 60 61 62 62 59 51 17 60 65 76 72 70 71 71 71 75
19 14 22 24 31 39 45 45 43 43 41 40 39 39 41 40 39 40 44 48 49 51 54 55 56 57 57 57 59 60 59 53 33 33 59 63 70 70 68 69 68 69 72
28 22 27 28 33 39 45 45 43 41 40 38 37 38 41 39 37 36 38 42 44 47 51 51 52 55 55 56 57 56 55 42 19 57 56 60 68 68 67 66 65 67 71
30 24 28 32 34 39 43 45 44 42 40 39 38 37 40 40 39 37 37 37 39 43 45 46 46 51 54 54 55 52 46 23 38 55 51 54 54 55 64 65 61 64 70
35 30 32 34 34 37 39 41 43 42 40 39 39 38 39 40 39 39 37 35 35 38 42 44 43 46 50 52 51 47 38 14 44 52 46 50 42 42 56 60 57 58 67
42 39 35 34 36 37 37 37 39 41 39 39 39 39 37 38 39 38 36 34 32 33 36 41 43 44 46 48 47 41 31 4 22 47 38 46 34 32 49 53 52 52 64
45 40 36 35 34 34 37 38 37 39 39 38 37 36 34 36 39 37 33 32 31 29 31 37 42 42 44 46 43 36 20 343 30 37 35 43 30 29 37 40 45 52 61
42 35 32 33 32 30 33 34 35 36 35 33 33 29 26 28 34 37 31 29 30 27 26 31 39 38 37 49 42 31 10 9 18 24 34 32 22 21 24 30 36 50 67
38 31 27 29 27 26 26 28 26 27 29 26 24 23 21 22 24 25 32 27 26 22 22 26 34 38 23 36 41 20 15 10 18 23 34 25 16 14 13 19 29 36 54
46 35 27 25 27 27 25 25 24 20 23 23 21 18 17 20 19 19 21 19 18 15 15 18 22 27 20 19 9 4 7 7 8 15 34 20 12 15 13 13 14 7 20
53 41 33 26 30 29 28 29 27 24 21 22 20 15 13 17 16 16 20 12 9 6 3 6 4 7 10 14 3 358 1 355 355 7 34 21 10 10 10 7 1 350 27
66 47 38 30 31 30 31 31 30 26 24 23 17 16 16 18 12 13 16 13 8 2 1 358 357 359 1 4 359 352 345 346 351 359 24 27 13 8 5 359 357 3 11
71 52 42 40 37 36 35 33 30 27 22 22 23 20 16 14 12 7 11 13 9 1 355 350 351 346 350 349 348 344 336 341 344 350 349 16 24 13 5 356 355 355 350
79 63 51 46 40 39 39 34 31 28 23 22 21 20 19 15 12 8 9 10 3 355 353 347 351 344 346 341 334 332 325 327 330 338 343 348 358 15 9 359 352 348 346
98 84 63 51 45 42 42 38 33 28 25 21 17 16 18 15 12 8 9 7 356 354 353 352 352 343 346 339 329 324 316 315 313 323 326 337 342 344 2 6 356 349 345
111 90 70 55 50 45 44 42 38 31 26 19 16 14 13 13 11 9 5 5 355 356 356 352 350 344 340 340 326 313 308 299 298 297 307 319 334 332 333 355 350 347 344
115 96 81 64 50 52 54 49 42 35 27 18 16 14 9 7 9 7 6 5 0 358 357 354 345 347 342 335 319 310 301 289 280 291 301 313 321 324 326 326 321 333 343
128 114 93 69 46 33 26 17 18 17 11 13 13 12 7 8 4 4 1 1 357 357 353 348 342 343 350 341 320 318 293 270 271 286 309 308 312 319 320 320 319 322 321
159 140 100 69 46 25 9 4 360 359 358 360 359 7 5 5 1 353 356 351 350 341 343 348 348 339 343 346 329 309 304 268 136 323 304 306 311 315 313 318 318 320 314
178 171 141 76 44 23 17 20 29 8 343 351 354 355 0 359 359 355 344 342 340 336 333 338 337 335 326 327 328 311 297 299 321 274 289 303 319 320 310 308 306 304 303
186 173 165 133 59 28 21 19 10 357 349 340 335 336 346 353 354 351 344 336 333 327 326 325 321 312 303 305 299 289 287 292 277 289 273 285 303 307 305 301 294 289 288
182 176 173 162 104 22 3 359 357 353 337 329 325 331 337 344 347 346 340 333 329 322 320 319 311 301 290 290 291 287 280 270 254 257 271 281 293 290 295 297 291 281 279
177 175 178 178 201 278 310 318 317 322 322 321 324 327 328 331 333 340 332 326 321 316 311 308 303 299 286 278 280 272 269 263 267 269 270 275 279 286 289 282 281 279 273